TimeEDT,TemperatureF,Dew PointF,Humidity,Sea Level PressureIn,VisibilityMPH,Wind Direction,Wind SpeedMPH,Gust SpeedMPH,PrecipitationIn,Events,Conditions,WindDirDegrees,DateUTC
12:13 AM,53.8,52.2,94,30.20,10.0,Calm,Calm,-,N/A,,Clear,0,2013-08-17 04:13:00
12:34 AM,53.6,52.2,95,30.20,7.0,Calm,Calm,-,N/A,,Clear,0,2013-08-17 04:34:00
12:54 AM,53.6,52.3,95,30.20,10.0,Calm,Calm,-,N/A,,Clear,0,2013-08-17 04:54:00
1:14 AM,52.5,51.4,96,30.21,2.0,Calm,Calm,-,N/A,,Clear,0,2013-08-17 05:14:00
1:34 AM,52.0,50.9,96,30.21,4.0,Calm,Calm,-,N/A,,Clear,0,2013-08-17 05:34:00
1:54 AM,52.2,51.3,97,30.21,7.0,Calm,Calm,-,N/A,,Clear,0,2013-08-17 05:54:00
2:14 AM,50.4,49.5,97,30.21,5.0,Calm,Calm,-,N/A,,Clear,0,2013-08-17 06:14:00
2:34 AM,50.7,49.8,97,30.21,1.5,Calm,Calm,-,N/A,,Mist,0,2013-08-17 06:34:00
2:54 AM,49.6,48.9,97,30.22,4.0,Calm,Calm,-,N/A,,Clear,0,2013-08-17 06:54:00
3:14 AM,50.5,50.0,98,30.22,5.0,Calm,Calm,-,N/A,,Clear,0,2013-08-17 07:14:00
3:34 AM,49.8,49.1,97,30.22,1.0,Calm,Calm,-,N/A,,Mist,0,2013-08-17 07:34:00
3:54 AM,50.0,49.3,97,30.23,4.0,Calm,Calm,-,N/A,,Clear,0,2013-08-17 07:54:00
4:14 AM,48.4,47.7,97,30.23,1.0,Calm,Calm,-,N/A,,Mist,0,2013-08-17 08:14:00
4:34 AM,49.1,48.4,97,30.23,7.0,Calm,Calm,-,N/A,,Clear,0,2013-08-17 08:34:00
4:54 AM,49.3,48.6,97,30.23,4.0,Calm,Calm,-,N/A,,Clear,0,2013-08-17 08:54:00
5:14 AM,47.5,46.9,98,30.23,0.8,Calm,Calm,-,N/A,,Mist,0,2013-08-17 09:14:00
5:34 AM,47.5,46.8,97,30.23,2.0,Calm,Calm,-,N/A,,Clear,0,2013-08-17 09:34:00
5:54 AM,48.2,47.3,97,30.23,10.0,Calm,Calm,-,N/A,,Clear,0,2013-08-17 09:54:00
6:14 AM,48.2,47.3,97,30.24,1.0,Calm,Calm,-,N/A,,Mist,0,2013-08-17 10:14:00
6:34 AM,47.5,46.8,97,30.24,2.5,Calm,Calm,-,N/A,,Clear,0,2013-08-17 10:34:00
6:54 AM,46.8,46.0,97,30.25,0.2,Calm,Calm,-,N/A,Fog,Fog,0,2013-08-17 10:54:00
7:14 AM,47.7,46.9,97,30.25,2.5,Calm,Calm,-,N/A,,Clear,0,2013-08-17 11:14:00
7:34 AM,48.6,47.8,97,30.25,5.0,Calm,Calm,-,N/A,,Clear,0,2013-08-17 11:34:00
7:54 AM,51.3,50.7,98,30.25,10.0,Calm,Calm,-,N/A,,Clear,0,2013-08-17 11:54:00
8:14 AM,53.6,52.9,97,30.25,10.0,Calm,Calm,-,N/A,,Clear,0,2013-08-17 12:14:00
8:35 AM,56.5,53.6,90,30.26,10.0,Calm,Calm,-,N/A,,Clear,0,2013-08-17 12:35:00
8:54 AM,59.4,54.0,82,30.26,10.0,Calm,Calm,-,N/A,,Clear,0,2013-08-17 12:54:00
9:14 AM,62.1,54.7,77,30.26,10.0,Calm,Calm,-,N/A,,Clear,0,2013-08-17 13:14:00
9:35 AM,65.7,55.6,70,30.26,10.0,Calm,Calm,-,N/A,,Clear,0,2013-08-17 13:35:00
9:54 AM,67.5,55.8,66,30.26,10.0,SSW,3.5,-,N/A,,Clear,200,2013-08-17 13:54:00
10:14 AM,69.3,55.6,62,30.26,10.0,South,3.5,-,N/A,,Clear,180,2013-08-17 14:14:00
10:34 AM,71.8,55.6,57,30.26,10.0,South,3.5,-,N/A,,Clear,180,2013-08-17 14:34:00
10:54 AM,73.8,55.0,52,30.26,10.0,South,4.6,-,N/A,,Clear,170,2013-08-17 14:54:00
11:14 AM,75.4,51.6,43,30.26,10.0,South,5.8,-,N/A,,Clear,180,2013-08-17 15:14:00
11:34 AM,76.5,48.9,38,30.26,10.0,SW,6.9,-,N/A,,Clear,230,2013-08-17 15:34:00
11:54 AM,77.2,49.3,37,30.26,10.0,SW,5.8,-,N/A,,Clear,220,2013-08-17 15:54:00
12:14 PM,78.4,49.1,36,30.25,10.0,SW,5.8,-,N/A,,Clear,230,2013-08-17 16:14:00
12:34 PM,79.3,49.5,35,30.25,10.0,West,4.6,-,N/A,,Clear,280,2013-08-17 16:34:00
12:54 PM,79.5,49.3,35,30.24,10.0,West,4.6,-,N/A,,Clear,260,2013-08-17 16:54:00
1:15 PM,79.9,49.3,34,30.24,10.0,SW,4.6,-,N/A,,Clear,230,2013-08-17 17:15:00
1:34 PM,80.8,47.8,31,30.23,10.0,WSW,5.8,-,N/A,,Clear,240,2013-08-17 17:34:00
1:54 PM,81.5,47.7,31,30.23,10.0,Calm,Calm,-,N/A,,Clear,0,2013-08-17 17:54:00
2:15 PM,81.1,47.7,31,30.22,10.0,SW,4.6,-,N/A,,Clear,230,2013-08-17 18:15:00
2:34 PM,81.9,48.0,31,30.22,10.0,West,4.6,-,N/A,,Clear,270,2013-08-17 18:34:00
2:54 PM,82.2,48.2,30,30.21,10.0,West,4.6,-,N/A,,Clear,280,2013-08-17 18:54:00
3:15 PM,82.0,46.9,29,30.21,10.0,SW,5.8,-,N/A,,Clear,230,2013-08-17 19:15:00
3:34 PM,82.6,46.6,28,30.20,10.0,SSW,8.1,-,N/A,,Clear,200,2013-08-17 19:34:00
3:54 PM,82.4,46.0,28,30.20,10.0,WSW,5.8,-,N/A,,Clear,240,2013-08-17 19:54:00
4:14 PM,82.0,46.6,29,30.19,10.0,SSW,5.8,-,N/A,,Clear,200,2013-08-17 20:14:00
4:34 PM,82.4,47.8,30,30.19,10.0,WNW,5.8,-,N/A,,Clear,300,2013-08-17 20:34:00
4:55 PM,82.0,48.4,31,30.18,10.0,NW,5.8,-,N/A,,Clear,320,2013-08-17 20:55:00
5:14 PM,81.7,48.2,31,30.18,10.0,WNW,4.6,-,N/A,,Clear,300,2013-08-17 21:14:00
5:34 PM,81.3,49.1,32,30.18,10.0,West,4.6,-,N/A,,Clear,280,2013-08-17 21:34:00
5:55 PM,80.2,50.5,35,30.18,10.0,NNW,3.5,-,N/A,,Clear,330,2013-08-17 21:55:00
6:14 PM,79.9,50.0,35,30.18,10.0,NW,3.5,-,N/A,,Clear,320,2013-08-17 22:14:00
6:34 PM,79.2,50.0,36,30.18,10.0,WNW,5.8,-,N/A,,Clear,300,2013-08-17 22:34:00
6:55 PM,77.9,50.5,38,30.18,10.0,NW,3.5,-,N/A,,Clear,320,2013-08-17 22:55:00
7:14 PM,77.0,51.8,41,30.18,10.0,NNW,3.5,-,N/A,,Clear,340,2013-08-17 23:14:00
7:34 PM,75.9,52.5,44,30.18,10.0,Calm,Calm,-,N/A,,Clear,0,2013-08-17 23:34:00
7:54 PM,73.9,54.1,50,30.18,10.0,Calm,Calm,-,N/A,,Clear,0,2013-08-17 23:54:00
8:14 PM,71.6,54.5,55,30.18,10.0,Calm,Calm,-,N/A,,Clear,0,2013-08-18 00:14:00
8:35 PM,68.0,56.3,66,30.18,10.0,Calm,Calm,-,N/A,,Clear,0,2013-08-18 00:35:00
8:54 PM,65.3,56.1,72,30.18,10.0,Calm,Calm,-,N/A,,Clear,0,2013-08-18 00:54:00
9:14 PM,62.8,55.0,76,30.18,10.0,Calm,Calm,-,N/A,,Clear,0,2013-08-18 01:14:00
9:35 PM,61.5,55.0,79,30.19,10.0,Calm,Calm,-,N/A,,Clear,0,2013-08-18 01:35:00
9:54 PM,61.0,55.0,81,30.19,10.0,Calm,Calm,-,N/A,,Clear,0,2013-08-18 01:54:00
10:15 PM,59.4,55.0,86,30.20,10.0,Calm,Calm,-,N/A,,Clear,0,2013-08-18 02:15:00
10:34 PM,58.6,54.5,86,30.20,10.0,Calm,Calm,-,N/A,,Clear,0,2013-08-18 02:34:00
10:54 PM,57.0,54.5,91,30.20,10.0,Calm,Calm,-,N/A,,Clear,0,2013-08-18 02:54:00
11:15 PM,56.1,53.8,92,30.20,10.0,Calm,Calm,-,N/A,,Clear,0,2013-08-18 03:15:00
11:34 PM,55.8,53.6,92,30.19,10.0,Calm,Calm,-,N/A,,Clear,0,2013-08-18 03:34:00
11:54 PM,55.6,53.6,93,30.19,10.0,Calm,Calm,-,N/A,,Clear,0,2013-08-18 03:54:00